Regional Weather Roundup
Issued by NWS Newport/Morehead, NC

Current Version | Previous Version | Text Only | Print | Product List | Glossary On
Versions: 1 2 3 4 5 6 7 8 9 10 11 12 13 14 15 16 17 18 19 20 21 22 23 24 25 26 27 28 29 30 31 32 33 34 35 36 37 38 39 40 41 42 43 44 45 46 47 48 49 50
314
ASUS42 KMHX 201714
RWRMHX
WEATHER ROUNDUP FOR EASTERN NORTH CAROLINA
NATIONAL WEATHER SERVICE NEWPORT/MOREHEAD CITY NC
100 PM EDT SUN AUG 20 2017

NOTE: "FAIR" INDICATES FEW OR NO CLOUDS BELOW 12,000 FEET
WITH NO SIGNIFICANT WEATHER AND/OR OBSTRUCTIONS TO VISIBILITY

NCZ015>017-031-032-045>047-102-103-201800-
NORTH COAST

CITY           SKY/WX    TMP DP  RH WIND       PRES   REMARKS
EDENTON        MOSUNNY   90  71  53 CALM      30.11S
ELIZABETH CITY SUNNY     89  74  60 E6        30.10S
KITTY HAWK     MOSUNNY   82  74  78 CALM      30.10R
MANTEO         CLOUDY    84  74  70 N6        30.11R

$$

NCZ045>047-081-094-103-104-201800-
CENTRAL COAST

CITY           SKY/WX    TMP DP  RH WIND       PRES   REMARKS
FRISCO         CLOUDY    84  77  79 CALM      30.10F

$$

NCZ095-097-098-100-101-201800-
SOUTHERN COAST

CITY           SKY/WX    TMP DP  RH WIND       PRES   REMARKS
BEAUFORT       CLOUDY    83  79  88 CALM      30.10R
CEDAR ISLAND   NOT AVBL
JACKSONVILLE   MOSUNNY   86  78  77 NE5       30.09S
PINEY ISLAND   PTSUNNY  N/A N/A N/A VRB6      30.10R
WILMINGTON     SUNNY     90  77  65 CALM      30.08F HX 103


$$

NCZ011>013-027>030-043-044-078>080-089-090>093-098-201800-
COASTAL PLAIN

CITY           SKY/WX    TMP DP  RH WIND       PRES   REMARKS
AHOSKIE          N/A     87  70  57 NE5       30.11S
CLINTON        MOSUNNY   91  73  56 E3        30.10F
ELIZABETHTOWN  NOT AVBL
GOLDSBORO      MOSUNNY   90  72  55 VRB5      30.09F
GREENVILLE     MOSUNNY   90  70  51 CALM      30.11S
HAVELOCK       CLOUDY    89  75  63 N5        30.11R
KENANSVILLE    MOSUNNY   90  70  51 CALM      30.10F
KINSTON        NOT AVBL
NEW BERN       PTSUNNY   87  74  64 E3        30.11S
RICHLANDS      MOSUNNY   88  75  65 CALM      30.10F
ROCKY MOUNT    MOSUNNY   90  68  48 SE5       30.10F HAZE
WASHINGTON     MOSUNNY   89  74  62 NW5       30.10F
WHITEVILLE     PTSUNNY   86  77  74 E5        30.09F

$$

AMZ130-135-150-152-154-156-158-170-250-252-270-ANZ085-086-088-633-658-670-201800-
MARINE OBSERVATIONS

STATION/POSITION TIME  TEMP    WIND        PRES    WAVE   SWELL
                       AIR SEA DIR/SP/G            HT/PER HT/PER
                 (UTC) (F)     (DEG/KT/KT) (MB)    (FT/S) (FT/S)
CHESAPEAKE LIGHT NOT AVBL
64 E VA BEACH    1650   79 80   60/  6/  6 1020.1    2/ 8   2/ 8
DUCK             1648   79 77   20/  8/  9 1019.2
2 E DUCK         1700      79                N/A     2/ 9
OREGON INLET     1636   80 76   30/  5/  7 1019.3
13E OREGON INLT  1648      80                N/A     2/ 8   2/ 8
HATTERAS CG      1648   81 80  330/  2/  3 1019.3
DIAMOND BUOY     1650   80 85  340/  4/  6 1019.1    3/ 8   2/ 8
CAPE LOOKOUT     1700   81      90/  3/  4 1018.9
BEAUFORT LAB     1648   82 81   10/  4/  7 1018.7
30 SE NEW RVR IN 1608   81 83  250/  4/  6 1018.9
30 SE NEW RVR IN 1643      83                N/A     3/ 8
27 SE WRIGHTSVLE 1608   81 83  190/  4/  6 1018.6
5 SE WRIGHTSVLE  1608   82 83  130/  2/  4 1018.7
225 S CAPE HAT   1650   83 85  160/  6/  8 1020.2    3/ 8   3/ 8
41 SE CHARLESTON 1700   85 85   CALM  /  2 1018.5

$$




USA.gov is the U.S. government's official web portal to all federal, state and local government web resources and services.